RADUGA 7 [-]

Last updated on Dec. 5, 2020, 6:14 a.m. UTC

1 12003U 80081A   20339.66721667  .00000083  00000-0  00000-0 0  9992
2 12003  10.6700 310.6793 0009816 263.5302 284.3940  1.00273563103041
UTC
Height (km)
Latitude
Longitude
Inclination
Orbital Period
UTC large
Height (km)
Speed (km/s)
/
Latitude / Longitude
Inclination (degrees)
Orbital Period (minutes)
Azimuth
Elevation
Range (km)
Doppler Factor
iOS Compass Heading
iOS Angle

Next 30 passes for location: Hong Kong

Rise time Rise Azimuth (degrees) Set time Set Azimuth (degrees) Duration Max altitude (degrees)

No matching passes for this satellites